TimeEDT,TemperatureF,Dew PointF,Humidity,Sea Level PressureIn,VisibilityMPH,Wind Direction,Wind SpeedMPH,Gust SpeedMPH,PrecipitationIn,Events,Conditions,WindDirDegrees,DateUTC
12:53 AM,60.1,54.0,80,30.25,10.0,NNE,6.9,-,N/A,,Clear,20,2013-09-18 04:53:00
1:53 AM,59.0,53.1,81,30.24,10.0,NNE,8.1,-,N/A,,Clear,20,2013-09-18 05:53:00
2:53 AM,59.0,52.0,78,30.22,10.0,NNE,8.1,-,N/A,,Partly Cloudy,20,2013-09-18 06:53:00
3:53 AM,59.0,52.0,78,30.22,10.0,NNE,9.2,-,N/A,,Mostly Cloudy,20,2013-09-18 07:53:00
4:53 AM,57.9,52.0,81,30.22,10.0,NNE,10.4,-,N/A,,Mostly Cloudy,20,2013-09-18 08:53:00
5:53 AM,57.0,51.1,81,30.21,10.0,NNE,8.1,-,N/A,,Mostly Cloudy,20,2013-09-18 09:53:00
6:53 AM,55.9,51.1,84,30.23,10.0,North,5.8,-,N/A,,Partly Cloudy,10,2013-09-18 10:53:00
7:53 AM,57.0,52.0,83,30.23,10.0,North,8.1,-,N/A,,Clear,360,2013-09-18 11:53:00
8:53 AM,62.1,53.1,72,30.23,10.0,NNE,11.5,-,N/A,,Overcast,20,2013-09-18 12:53:00
9:53 AM,66.9,54.0,63,30.24,10.0,NNE,13.8,18.4,N/A,,Clear,30,2013-09-18 13:53:00
10:53 AM,71.1,55.9,59,30.24,10.0,North,9.2,-,N/A,,Clear,10,2013-09-18 14:53:00
11:53 AM,75.0,57.9,55,30.22,10.0,NE,8.1,-,N/A,,Partly Cloudy,50,2013-09-18 15:53:00
12:53 PM,77.0,59.0,54,30.21,10.0,NNE,5.8,-,N/A,,Overcast,30,2013-09-18 16:53:00
1:53 PM,78.1,57.9,50,30.19,10.0,North,9.2,-,N/A,,Scattered Clouds,10,2013-09-18 17:53:00
2:53 PM,80.1,59.0,48,30.17,10.0,NNW,8.1,-,N/A,,Overcast,340,2013-09-18 18:53:00
3:53 PM,77.0,57.9,52,30.16,10.0,East,4.6,-,N/A,,Overcast,100,2013-09-18 19:53:00
4:53 PM,77.0,60.1,56,30.15,10.0,East,5.8,-,N/A,,Overcast,100,2013-09-18 20:53:00
5:53 PM,75.0,60.1,60,30.15,10.0,ENE,5.8,-,N/A,,Mostly Cloudy,60,2013-09-18 21:53:00
6:53 PM,72.0,61.0,68,30.15,10.0,ENE,4.6,-,N/A,,Mostly Cloudy,60,2013-09-18 22:53:00
7:53 PM,69.1,61.0,75,30.15,10.0,Calm,Calm,-,N/A,,Clear,0,2013-09-18 23:53:00
8:53 PM,66.9,62.1,84,30.16,10.0,NNE,3.5,-,N/A,,Mostly Cloudy,20,2013-09-19 00:53:00
9:53 PM,66.0,62.1,87,30.17,10.0,NNE,4.6,-,N/A,,Overcast,30,2013-09-19 01:53:00
10:53 PM,64.9,59.0,81,30.17,10.0,NNE,6.9,-,N/A,,Clear,20,2013-09-19 02:53:00
11:53 PM,63.0,57.9,84,30.17,10.0,NNE,6.9,-,N/A,,Clear,30,2013-09-19 03:53:00